Home   Weather   Ålgård   Past weeks

Flag for Norway Past Weather in Ålgård, Norway — Yesterday and Last 2 Weeks

Now
36 °F

Scattered showers. Passing clouds.


Feels Like: 24 °F
Forecast: 31 / 45 °F
Wind: 22 mph from Northwest

Location: Stavanger / Sola

Current Time: Apr 25, 2017 at 1:13:47 am

Latest Report: Apr 25, 2017 at 12:20 am


Visibility: N/A

Pressure: 29.56 "Hg

Humidity: 75%

Dew Point: 28 °F

Location of ÅlgårdLocation

Past Weather in Ålgård — Graph

°F

Ålgård Temperature Yesterday

Maximum temperature yesterday: 43 °F (at 2:50 am)
Minimum temperature yesterday: 34 °F (at 2:20 pm)
Average temperature yesterday: 38 °F

High & Low Weather Summary for the Past Weeks

 TemperatureHumidityPressure
High46 °F (Apr 10, 2:50 pm)100% (Apr 11, 7:50 pm)30.60 "Hg (Apr 11, 7:50 pm)
Low28 °F (Apr 17, 6:20 am)42% (Apr 18, 10:20 am)29.47 "Hg (Apr 12, 6:50 pm)
Average40 °F79%29.94 "Hg
* Reported Apr 10 12:50 am — Apr 25 12:20 am, Ålgård, Weather by CustomWeather, © 2017

Note: Actual official high and low records may vary slightly from our data, if they occured in-between our weather recording intervals... More about our weather records

Advertising

Ålgård Weather History for the Previous 24 Hours

Scroll right to see more
 ConditionsComfort  
Time TempWeatherWind HumidityBarometerVisibility
12:20 am
Tue, Apr 25
36 °FScattered showers. Passing clouds.22 mph75%29.56 "HgN/A
11:50 pm
Mon, Apr 24
34 °FScattered showers. Passing clouds.9 mph87%29.56 "HgN/A
11:20 pm34 °FScattered showers. Passing clouds.15 mph87%29.59 "HgN/A
10:50 pm36 °FScattered showers. Passing clouds.20 mph70%29.59 "HgN/A
10:20 pm36 °FScattered showers. Passing clouds.21 mph75%29.59 "HgN/A
9:50 pm37 °FScattered showers. Passing clouds.22 mph65%29.59 "HgN/A
9:20 pm36 °FScattered showers. Passing clouds.21 mph75%29.59 "HgN/A
8:50 pm36 °FScattered showers. Scattered clouds.22 mph70%29.59 "HgN/A
8:20 pm37 °FScattered showers. Scattered clouds.22 mph65%29.59 "HgN/A
7:50 pm37 °FSprinkles. Scattered clouds.26 mph65%29.62 "HgN/A
7:20 pm37 °FScattered showers. Scattered clouds.25 mph60%29.62 "HgN/A
6:50 pm37 °FScattered showers. Scattered clouds.28 mph65%29.62 "HgN/A
6:20 pm37 °FScattered showers. Scattered clouds.25 mph70%29.62 "HgN/A
5:50 pm39 °FScattered showers. Scattered clouds.28 mph65%29.62 "HgN/A
5:20 pm39 °FScattered showers. Scattered clouds.23 mph56%29.62 "HgN/A
4:50 pm39 °FScattered clouds.29 mph52%29.62 "HgN/A
4:20 pm39 °FScattered showers. Scattered clouds.28 mph52%29.62 "HgN/A
3:50 pm39 °FSprinkles. Scattered clouds.30 mph65%29.62 "HgN/A
3:20 pm39 °FScattered showers. Scattered clouds.31 mph61%29.62 "HgN/A
2:50 pm39 °FScattered clouds.30 mph61%29.62 "HgN/A
2:20 pm34 °FScattered showers. Scattered clouds.30 mph75%29.62 "HgN/A
1:50 pm39 °FScattered clouds.31 mph48%29.62 "HgN/A
1:20 pm39 °FScattered clouds.29 mph56%29.59 "HgN/A
12:50 pm39 °FScattered showers. Broken clouds.29 mph56%29.59 "HgN/A
12:20 pm36 °FScattered showers. Scattered clouds.30 mph70%29.59 "HgN/A
11:50 am39 °FScattered clouds.32 mph56%29.59 "HgN/A
11:20 am39 °FScattered clouds.31 mph61%29.56 "HgN/A
10:50 am39 °FScattered clouds.33 mph56%29.56 "HgN/A
10:20 am37 °FScattered clouds.32 mph65%29.56 "HgN/A
9:50 am39 °FScattered clouds.33 mph61%29.53 "HgN/A
9:20 am37 °FScattered clouds.33 mph65%29.53 "HgN/A
8:50 am37 °FScattered clouds.31 mph70%29.53 "HgN/A
8:20 am37 °FPartly sunny.31 mph70%29.53 "HgN/A
7:50 am37 °FPartly sunny.28 mph75%29.53 "HgN/A
7:20 am37 °FPartly sunny.26 mph75%29.50 "HgN/A
6:50 am37 °FPartly sunny.23 mph81%29.50 "HgN/A
6:20 am37 °FPartly sunny.25 mph81%29.50 "HgN/A
5:50 am37 °FPassing clouds.21 mph87%29.50 "HgN/A
4:50 am37 °FPartly cloudy.20 mph87%29.50 "HgN/A
3:50 am43 °FPartly cloudy.20 mph93%29.50 "Hg4 mi
2:50 am43 °FRain. Passing clouds.18 mph93%29.53 "Hg4 mi
1:50 am41 °FRain. Passing clouds.18 mph93%29.62 "Hg4 mi
Weather by CustomWeather, © 2017

See weather overviewHow to use our weather pages